User: anonymous   Login
Location: Newark
(46.1292°N, 1.0086°W)
Time: 14:25:12
(UTC+00:00)
Language:

Tiros 1 despin weight - Orbit

View from above orbital plane
View from above orbital plane
View from above satellite
View from above satellite

Ground track
Ground track

The orbit data is extracted from the following two-line orbital elements,

1   115U 60002D   19324.05483768 -.00000017  00000-0  25211-4 0  9999
2   115  48.1658 205.8963 0034417  41.0149 319.3342 14.83509765181735
Epoch (UTC): 20 November 2019 01:18:57
Eccentricity: 0.0034417
inclination: 48.1658°
perigee height: 594 km
apogee height: 642 km
right ascension of ascending node: 205.8963°
argument of perigee: 41.0149°
revolutions per day: 14.83509765
mean anomaly at epoch: 319.3342°
orbit number at epoch: 18173

The dashed part of the orbit path shows where the satellite is in the earth's shadow,  

DLR